[[{"header":{"parameterUnit":"m.s-1","parameterCategory":1,"la1":30.2991,"la2":30.254,"lo1":-89.0895,"lo2":-89.0444,"dy":0.0017,"dx":0.0017,"nx":28,"ny":28,"refTime":"2026-02-11T03:00:00:Z","depth":0,"parameterNumber":2,"parameterNumberName":"U-component_of_WINDS"},"data":[0,0,0,0,0,0,0,0,0,0,0,0,0,0,0,0,0,0,0,0,0,0,0,0,0,0,0,0,0,0,0,0,0,0,0,0,0,0,0,0,0,0,0,0,0,0,0,0,0,0,0,0,0,0,0,0,0,0,-0.9566,-0.9565,0,-0.9532,-0.9531,-0.9531,-0.9569,-0.957,-0.9572,-0.9573,-0.9533,-0.953,-0.9528,0,0,0,0,0,0,0,0,0,0,0,0,0,-0.9658,-0.9656,-0.9566,-0.9565,-0.9565,-0.9532,-0.9531,-0.9531,-0.9568,-0.957,-0.9572,-0.9574,-0.9534,-0.9531,-0.9528,0,0,0,0,0,0,0,0,0,0,0,0,0,-0.962,-0.9655,-0.9566,-0.958,-0.9581,-0.9532,-0.9531,-0.9531,-0.9568,-0.957,-0.9572,-0.9575,-0.9535,-0.9531,-0.9527,-0.9461,0,0,-0.9516,-0.9515,0,0,0,0,0,0,0,0,-0.9622,-0.9617,-0.9578,-0.9579,-0.958,-0.9557,-0.9549,-0.9507,-0.9568,-0.9573,-0.9573,-0.9576,-0.9539,-0.9535,-0.9524,-0.946,-0.9458,-0.9516,-0.9514,-0.9512,-0.9511,0,0,0,0,0,0,0,-0.9625,-0.9618,-0.9552,-0.9578,-0.9579,-0.9586,-0.9583,-0.9541,-0.9544,-0.9572,-0.9575,-0.9571,-0.9539,-0.9527,-0.9523,-0.9457,-0.9516,-0.9513,-0.9511,-0.9509,-0.9336,-0.9333,0,0,0,0,0,0,-0.9626,-0.962,-0.9553,-0.9551,-0.9607,-0.9583,-0.9579,-0.9562,-0.9544,-0.9544,-0.9569,-0.9573,-0.9532,-0.9527,-0.9522,-0.9442,-0.9512,-0.9509,-0.9507,-0.9338,-0.9335,-0.9333,0,0,0,0,0,0,-0.9628,-0.962,-0.9555,-0.9586,-0.9579,-0.9579,-0.9559,-0.956,-0.9548,-0.9542,-0.9542,-0.9556,-0.9534,-0.9527,-0.9476,-0.9442,-0.9507,-0.9504,-0.9341,-0.9337,-0.9334,-0.9284,0,0,0,0,0,0,-0.9631,-0.9621,-0.9597,-0.9586,-0.9577,-0.9512,-0.9557,-0.9558,-0.9542,-0.9546,-0.953,-0.9529,-0.9535,-0.9481,-0.9473,-0.9438,-0.9501,-0.9344,-0.9339,-0.9335,-0.9289,-0.9279,-0.9271,0,0,0,0,0,-0.9634,-0.9583,-0.9596,-0.9587,-0.9548,-0.951,-0.9504,-0.9513,-0.9539,-0.9514,-0.951,-0.953,-0.9447,-0.9476,-0.9466,-0.943,-0.9346,-0.9341,-0.9335,-0.9293,-0.9281,-0.9271,0,0,0,0,0,0,-0.9589,-0.9582,-0.9596,-0.9541,-0.9525,-0.9516,-0.9485,-0.9501,-0.9477,-0.9482,-0.9493,-0.9488,-0.9435,-0.9427,-0.946,-0.9364,-0.94,-0.9393,-0.9371,-0.936,-0.9351,-0.9354,-0.9498,0,0,0,0,0,-0.9573,-0.9545,-0.9539,-0.9491,-0.9483,-0.9485,-0.9469,-0.9477,-0.9461,-0.9455,-0.9447,-0.9429,-0.9399,-0.9379,-0.9351,-0.9288,-0.9284,-0.9258,-0.9249,-0.9241,-0.9235,-0.9199,-0.9187,-0.9315,-0.9315,-0.9315,0,0,-0.9539,-0.9532,-0.9513,-0.9482,-0.9471,-0.9439,-0.948,-0.9445,-0.9421,-0.9449,-0.9401,-0.9395,-0.9375,-0.9318,-0.9292,-0.931,-0.9198,-0.9234,-0.9229,-0.9226,-0.9192,-0.918,-0.9169,-0.9311,-0.9312,-0.9312,0,0,-0.9461,-0.9453,-0.9412,-0.9401,-0.9384,-0.9386,-0.9376,-0.9364,-0.9361,-0.9314,-0.9334,-0.9305,-0.9253,-0.9238,-0.9224,-0.9139,-0.9155,-0.9129,-0.9082,-0.9047,-0.9037,-0.9029,-0.8997,-0.8986,-0.9122,-0.9122,-0.9122,0,-0.9421,-0.9376,-0.9388,-0.9352,-0.9337,-0.9362,-0.9319,-0.9307,-0.9281,-0.9269,-0.929,-0.9225,-0.9214,-0.9153,-0.9132,-0.912,-0.9107,-0.9131,-0.9038,-0.9029,-0.9021,-0.8991,-0.898,-0.9119,-0.912,-0.912,-0.912,0,-0.9326,-0.9294,-0.9262,-0.9239,-0.922,-0.918,-0.9185,-0.9164,-0.9173,-0.9172,-0.9122,-0.911,-0.9079,-0.9065,-0.9074,-0.9004,-0.9016,-0.9037,-0.9074,-0.9006,-0.8978,-0.8967,-0.9115,-0.9116,-0.9117,-0.9118,0,0,-0.9219,-0.9203,-0.9191,-0.9181,-0.9164,-0.9139,-0.9099,-0.9071,-0.9052,-0.9033,-0.8999,-0.8954,-0.8974,-0.8957,-0.8964,-0.8933,-0.8865,-0.8958,-0.8958,-0.8941,-0.8787,-0.8771,-0.8757,-0.8876,-0.8874,-0.8872,-0.8788,0,-0.9141,-0.9075,-0.9084,-0.9019,-0.8989,-0.9012,-0.8977,-0.8962,-0.896,-0.8932,-0.8928,-0.8896,-0.8925,-0.8915,-0.8886,-0.888,-0.8834,-0.8886,-0.8843,-0.8841,-0.8847,-0.8743,-0.8726,-0.8647,-0.8777,-0.8775,-0.8774,0,-0.9041,-0.902,-0.8952,-0.894,-0.8927,-0.8896,-0.887,-0.8844,-0.8827,-0.8827,-0.8808,-0.882,-0.8778,-0.8815,-0.8757,-0.8791,-0.8774,-0.8768,-0.8765,-0.8761,-0.8803,-0.8735,-0.8622,-0.861,-0.8757,-0.8759,-0.876,0,-0.8969,-0.8923,-0.8877,-0.8867,-0.8852,-0.8829,-0.8821,-0.8806,-0.8788,-0.8764,-0.8752,-0.8724,-0.8708,-0.8684,-0.8687,-0.8714,-0.8626,-0.8664,-0.8624,-0.8623,-0.8604,-0.8605,-0.8486,-0.8593,-0.8594,-0.8594,-0.8594,0,-0.888,-0.8837,-0.8845,-0.8816,-0.8769,-0.8779,-0.8731,-0.8725,-0.8711,-0.868,-0.8698,-0.8668,-0.8674,-0.8643,-0.8645,-0.8595,-0.8588,-0.8585,-0.8586,-0.8584,-0.8584,-0.8572,-0.8577,-0.8591,-0.8591,-0.8592,-0.8592,0,-0.8792,-0.8795,-0.8746,-0.8735,-0.8732,-0.8697,-0.8687,-0.8658,-0.8657,-0.8618,-0.8609,-0.8606,-0.8571,-0.8572,-0.8531,-0.8532,-0.8471,-0.8478,-0.8477,-0.8479,-0.8438,-0.8441,-0.8306,-0.8289,-0.8408,-0.8407,-0.8406,0,-0.8735,-0.8703,-0.8689,-0.8671,-0.8661,-0.8631,-0.8613,-0.8621,-0.8601,-0.8578,-0.8552,-0.8519,-0.8493,-0.8435,-0.8428,-0.8397,-0.8403,-0.8358,-0.8399,-0.8397,-0.8402,-0.8403,-0.8399,-0.835,-0.8349,-0.8348,-0.8347,0,-0.8633,-0.8636,-0.8611,-0.8585,-0.8563,-0.8543,-0.8524,-0.8508,-0.8513,-0.8489,-0.8455,-0.8435,-0.8394,-0.836,-0.833,-0.8319,-0.8333,-0.8334,-0.8323,-0.832,-0.832,-0.8319,-0.8455,-0.8337,-0.8338,-0.8339,-0.8339,-0.834,-0.8558,-0.8531,-0.8517,-0.8487,-0.8474,-0.8456,-0.8429,-0.8424,-0.8396,-0.8365,-0.8371,-0.8331,-0.8312,-0.8273,-0.826,-0.8228,-0.8243,-0.8227,-0.8223,-0.8219,-0.8214,-0.8326,-0.8222,-0.8222,-0.8223,-0.8223,-0.8223,0,-0.8457,-0.8449,-0.8422,-0.8396,-0.8372,-0.8389,-0.8369,-0.8347,-0.8313,-0.8295,-0.8269,-0.8228,-0.8195,-0.8185,-0.8153,-0.8129,-0.8134,-0.812,-0.8121,-0.8118,-0.8202,-0.8215,-0.8116,-0.8116,-0.8116,-0.8116,-0.8116,-0.8116,-0.8402,-0.8356,-0.8357,-0.8303,-0.8295,-0.8258,-0.8245,-0.8227,-0.8213,-0.8168,-0.8141,-0.8135,-0.812,-0.8086,-0.8056,-0.8053,-0.804,-0.8023,-0.8023,-0.8102,-0.8112,-0.8123,-0.8135,-0.802,-0.802,-0.7942,-0.7941,-0.794]},{"header":{"parameterUnit":"m.s-1","parameterCategory":1,"la1":30.2991,"la2":30.254,"lo1":-89.0895,"lo2":-89.0444,"dy":0.0017,"dx":0.0017,"nx":28,"ny":28,"refTime":"2026-02-11T03:00:00:Z","depth":0,"parameterNumber":3,"parameterNumberName":"V-component_of_WINDS"},"data":[0,0,0,0,0,0,0,0,0,0,0,0,0,0,0,0,0,0,0,0,0,0,0,0,0,0,0,0,0,0,0,0,0,0,0,0,0,0,0,0,0,0,0,0,0,0,0,0,0,0,0,0,0,0,0,0,0,0,-2.4138,-2.414,0,-2.4254,-2.4256,-2.4257,-2.4345,-2.4346,-2.4347,-2.4348,-2.4463,-2.4466,-2.4468,0,0,0,0,0,0,0,0,0,0,0,0,0,-2.3991,-2.3993,-2.4138,-2.414,-2.4141,-2.4254,-2.4256,-2.4257,-2.4345,-2.4346,-2.4347,-2.4348,-2.4463,-2.4465,-2.4468,0,0,0,0,0,0,0,0,0,0,0,0,0,-2.4075,-2.3994,-2.4138,-2.4199,-2.4205,-2.4254,-2.4256,-2.4258,-2.4345,-2.4346,-2.4347,-2.4348,-2.4462,-2.4465,-2.4469,-2.4465,0,0,-2.4479,-2.4481,0,0,0,0,0,0,0,0,-2.407,-2.4081,-2.4188,-2.4195,-2.4202,-2.4287,-2.4246,-2.4327,-2.4345,-2.4292,-2.4348,-2.4349,-2.4403,-2.4412,-2.4431,-2.4471,-2.4476,-2.448,-2.4482,-2.4483,-2.4484,0,0,0,0,0,0,0,-2.4064,-2.4076,-2.4184,-2.419,-2.4198,-2.4219,-2.4233,-2.4262,-2.4339,-2.4296,-2.4303,-2.4316,-2.4407,-2.4427,-2.4434,-2.4478,-2.4479,-2.4483,-2.4485,-2.4486,-2.4523,-2.4522,0,0,0,0,0,0,-2.4049,-2.4071,-2.418,-2.4188,-2.4138,-2.4221,-2.4236,-2.4258,-2.4339,-2.4353,-2.4315,-2.4319,-2.4421,-2.443,-2.4439,-2.4442,-2.4483,-2.4486,-2.4488,-2.4524,-2.4522,-2.4521,0,0,0,0,0,0,-2.4046,-2.4058,-2.4176,-2.4131,-2.4148,-2.4222,-2.4246,-2.426,-2.428,-2.4353,-2.4367,-2.4321,-2.4422,-2.4434,-2.4459,-2.4447,-2.4488,-2.4491,-2.4525,-2.4523,-2.4522,-2.4447,0,0,0,0,0,0,-2.4041,-2.4057,-2.4057,-2.413,-2.415,-2.4194,-2.4246,-2.4261,-2.4286,-2.4293,-2.4362,-2.4375,-2.4424,-2.4453,-2.4462,-2.4452,-2.4494,-2.4527,-2.4524,-2.4522,-2.4451,-2.4443,-2.4436,0,0,0,0,0,-2.4036,-2.403,-2.4056,-2.4069,-2.4151,-2.4193,-2.4204,-2.4262,-2.4285,-2.4285,-2.4332,-2.4373,-2.4446,-2.4455,-2.4466,-2.4457,-2.4528,-2.4525,-2.4523,-2.4454,-2.4444,-2.4436,0,0,0,0,0,0,-2.3951,-2.404,-2.4071,-2.4089,-2.4133,-2.4208,-2.4211,-2.4249,-2.4287,-2.4292,-2.4361,-2.4376,-2.4394,-2.4428,-2.4436,-2.4459,-2.4492,-2.4492,-2.4436,-2.4428,-2.4421,-2.4412,-2.4497,0,0,0,0,0,-2.3935,-2.3962,-2.4039,-2.4047,-2.4068,-2.4135,-2.4156,-2.4196,-2.4244,-2.4263,-2.4312,-2.4357,-2.439,-2.4411,-2.4445,-2.4456,-2.4473,-2.4455,-2.4448,-2.4441,-2.444,-2.445,-2.4443,-2.4513,-2.4513,-2.4513,0,0,-2.3901,-2.3953,-2.3966,-2.4031,-2.4071,-2.4097,-2.415,-2.4176,-2.4196,-2.4267,-2.4294,-2.4332,-2.4386,-2.4404,-2.4414,-2.4433,-2.4425,-2.4438,-2.4433,-2.4435,-2.4447,-2.444,-2.4434,-2.4511,-2.4512,-2.4512,0,0,-2.3853,-2.3895,-2.3908,-2.3946,-2.4005,-2.405,-2.4053,-2.4123,-2.4151,-2.418,-2.4234,-2.4258,-2.4314,-2.4351,-2.4377,-2.4345,-2.4384,-2.4354,-2.4316,-2.4324,-2.4319,-2.4314,-2.4304,-2.4299,-2.4353,-2.4352,-2.4352,0,-2.3803,-2.3847,-2.3909,-2.3932,-2.3959,-2.4026,-2.4039,-2.4073,-2.4139,-2.4157,-2.4177,-2.4249,-2.429,-2.4319,-2.4311,-2.4329,-2.4335,-2.4347,-2.4315,-2.4311,-2.4308,-2.4298,-2.4294,-2.4348,-2.4349,-2.4349,-2.435,0,-2.3783,-2.3812,-2.3815,-2.388,-2.3907,-2.3925,-2.399,-2.401,-2.4048,-2.4091,-2.4119,-2.4171,-2.4218,-2.4228,-2.4264,-2.4262,-2.4272,-2.4302,-2.4337,-2.4296,-2.4289,-2.4285,-2.4343,-2.4344,-2.4345,-2.4346,0,0,-2.3685,-2.3785,-2.3785,-2.3816,-2.3886,-2.391,-2.3931,-2.3978,-2.3995,-2.4038,-2.4058,-2.4104,-2.4134,-2.4163,-2.4204,-2.4212,-2.4184,-2.4242,-2.4244,-2.423,-2.4186,-2.4163,-2.4158,-2.421,-2.421,-2.4209,-2.4182,0,-2.365,-2.3692,-2.3749,-2.3772,-2.3801,-2.3864,-2.3883,-2.3927,-2.3968,-2.3997,-2.4042,-2.4074,-2.411,-2.4128,-2.4138,-2.4185,-2.4176,-2.4188,-2.4229,-2.423,-2.4215,-2.4154,-2.413,-2.4102,-2.4179,-2.4179,-2.4178,0,-2.3614,-2.3656,-2.3682,-2.3752,-2.3766,-2.3781,-2.383,-2.3857,-2.391,-2.3939,-2.3972,-2.4018,-2.4043,-2.4073,-2.411,-2.4116,-2.4137,-2.4162,-2.4163,-2.4169,-2.4202,-2.416,-2.4094,-2.409,-2.4174,-2.4175,-2.4175,0,-2.3541,-2.3604,-2.3629,-2.3653,-2.3735,-2.3744,-2.3778,-2.3832,-2.3857,-2.39,-2.3917,-2.396,-2.3984,-2.4017,-2.4073,-2.409,-2.4103,-2.4138,-2.4129,-2.4127,-2.4129,-2.4129,-2.4066,-2.414,-2.414,-2.414,-2.414,0,-2.3496,-2.351,-2.3598,-2.3613,-2.3631,-2.3696,-2.3711,-2.3751,-2.3798,-2.3822,-2.3879,-2.39,-2.3972,-2.4001,-2.4045,-2.4069,-2.4079,-2.4103,-2.4115,-2.4099,-2.4096,-2.4114,-2.4118,-2.4139,-2.4139,-2.414,-2.414,0,-2.3419,-2.3478,-2.3509,-2.3584,-2.3603,-2.3613,-2.3677,-2.3694,-2.3738,-2.3768,-2.3778,-2.3847,-2.3885,-2.3944,-2.3998,-2.4028,-2.4045,-2.4063,-2.4027,-2.4035,-2.4022,-2.4023,-2.397,-2.3967,-2.4041,-2.404,-2.4039,0,-2.3386,-2.3399,-2.3476,-2.3497,-2.3529,-2.3561,-2.3588,-2.3652,-2.3678,-2.3739,-2.3748,-2.3791,-2.3828,-2.3886,-2.394,-2.3983,-2.4003,-2.3982,-2.401,-2.3994,-2.4005,-2.4004,-2.4006,-2.3975,-2.3974,-2.3973,-2.3972,0,-2.3323,-2.3353,-2.3389,-2.3436,-2.3467,-2.3507,-2.3549,-2.3563,-2.3636,-2.3662,-2.3702,-2.3731,-2.3788,-2.3829,-2.3879,-2.3914,-2.3956,-2.3963,-2.3963,-2.3948,-2.3927,-2.3939,-2.4011,-2.3964,-2.3965,-2.3966,-2.3966,-2.3966,-2.3269,-2.3283,-2.334,-2.3379,-2.3419,-2.3457,-2.3478,-2.3525,-2.356,-2.3612,-2.3647,-2.3685,-2.3739,-2.3811,-2.3843,-2.3874,-2.3892,-2.3892,-2.3892,-2.3891,-2.3886,-2.3921,-2.3883,-2.3883,-2.3884,-2.3884,-2.3884,0,-2.321,-2.325,-2.3285,-2.3344,-2.3375,-2.3412,-2.3461,-2.3485,-2.3518,-2.3564,-2.3601,-2.3647,-2.3688,-2.3746,-2.3791,-2.3805,-2.3825,-2.3814,-2.3815,-2.3822,-2.3866,-2.3862,-2.3798,-2.3798,-2.3798,-2.3798,-2.3798,-2.3798,-2.3183,-2.321,-2.3246,-2.3293,-2.3333,-2.3372,-2.3397,-2.3434,-2.3471,-2.3521,-2.3556,-2.3594,-2.3645,-2.3695,-2.3734,-2.3751,-2.3765,-2.3749,-2.3771,-2.3811,-2.3819,-2.3827,-2.3823,-2.3751,-2.3751,-2.3724,-2.3724,-2.3724]}]]